Weather WX

World > North America > United States > Minnesota

Osseo, Minnesota Regional Weather

Lat: 45.12N, Lon: 93.4W
Wx Zone: MNZ060
Warning FLW WEATHER ALERT - (More Info. Click Here) Warning
Feedback

Osseo, MN Regional Weather

Expires:201906171200;;210292
ASUS43 KMPX 171110
RWRMN 
WEATHER ROUNDUP FOR MINNESOTA
NATIONAL WEATHER SERVICE TWIN CITIES/CHANHASSEN MN
600 AM CDT MON JUN 17 2019


NOTE: "FAIR" INDICATES FEW OR NO CLOUDS BELOW 12,000 FEET WITH NO
SIGNIFICANT WEATHER AND/OR OBSTRUCTIONS TO VISIBILITY. N/A MEANS
CURRENT SKY AND/OR WEATHER CONDITIONS ARE NOT AVAILABLE.


MNZ060>063-068>070-171200-
   Twin Cities Metro   
  
CITY           SKY/WX    TMP DP  RH WIND       PRES   REMARKS
TWIN CITIES    FAIR      58  55  90 SE8       29.97S                  
ST PAUL        MOCLDY    60  56  86 SE8       29.98R                  
CRYSTAL        FAIR      58  58 100 S7        29.95S                  
BLAINE         FAIR      59  57  94 SE5       29.96S                  
EDEN PRAIRIE   MOCLDY    58  56  93 SE6       29.96R                  
SOUTH ST PAUL  FAIR      60  57  92 SE5       29.97S                  
LAKE ELMO        N/A     59  57  94 SE5       29.99S                  
$$

SKY/WX - Weather  TMP - Temperature  DP - Dew Point  RH - Relative Humidity
WIND - Wind Direction/Speed PRES - Barometric Pressure VSB - Visibility
WCI - Wind Chill Index E13G22 Wind - East Wind 13 mph/Gusts of 22 mph